Location: Cul de Sac
(18.0387°N, 63.0654°W)
Time: 08:12:52
(UTC+00:00)

Cosmos 2219 - Pass Details

Date: 29 October 2020
Orbit: 832 x 862 km, 71.1° (Epoch: 27 November)

Event Time Altitude Azimuth Distance (km) Brightness Sun altitude
Rises 23:18:11 0° 333° (NNW) 3,432 6.6 -23.5°
Reaches altitude 10° 23:20:44 10° 328° (NNW) 2,494 5.9 -24.1°
Maximum altitude 23:26:11 46° 256° (WSW) 1,137 4.2 -25.4°
Drops below altitude 10° 23:31:36 10° 184° (S) 2,478 5.7 -26.6°
Sets 23:34:08 0° 178° (S) 3,408 6.4 -27.2°
